Weather Roundup
Issued by NWS

Home | Current Version | Previous Version | Graphics & Text | Print | Product List | Glossary On
Versions: 1 2 3 4 5 6 7 8 9 10 11 12 13 14 15 16 17 18 19 20 21 22 23 24 25 26 27 28 29 30 31 32 33 34 35 36 37 38 39 40 41 42 43 44 45 46 47 48 49 50
000
NZUS93 KARX 211810
HRRWXR

CURRENT HOURLY OBSERVATIONS ACROSS
MUCH OF THE UPPER MISSISSIPPI VALLEY
NATIONAL WEATHER SERVICE LA CROSSE WI
1200 PM CST SUN DEC 21 2014


...SOUTHEAST MINNESOTA...


CITY           SKY/WX    TMP DP  RH WIND       PRES   REMARKS
ROCHESTER      CLOUDY    35  34  96 S20G31    29.85F FOG     WCI  24
ROCHESTER/MAYO CLOUDY    36  35  96 SE14G20   29.86F WCI  27
WINONA         CLOUDY    36  34  93 SE9       29.91F FOG     WCI  29
AUSTIN         DRZL/FOG  36  36 100 S18       29.84F VSB 1   WCI  25
ALBERT LEA     FOG       36  36 100 S12G18    29.82F VSB 3/4 WCI  27
DODGE CENTER   FOG       36  36 100 S17G25    29.83F VSB 1   WCI  25
PRESTON        CLOUDY    34  34  98 S20G25    29.88F FOG     WCI  23
OWATONNA       CLOUDY    36  34  93 S15       29.82F FOG     WCI  26
FARIBAULT      CLOUDY    36  36 100 S12       29.82F FOG     WCI  27
$$

...ELSEWHERE IN MINNESOTA...


CITY           SKY/WX    TMP DP  RH WIND       PRES   REMARKS
MINNEAPOLIS    LGT SNOW  34  33  96 SE9       29.82F FOG     WCI  27
INTNL FALLS    CLOUDY    30  28  92 S8G17     29.74F WCI  22
DULUTH         FOG       31  29  92 SE10      29.81F VSB 1/4 WCI  22
RED WING       LGT RAIN  36  34  93 S9        29.85F WCI  29
REDWOOD FALLS  CLOUDY    35  34  96 SE13      29.73F FOG     WCI  26
MANKATO        CLOUDY    36  32  87 S14       29.78F WCI  27
WORTHINGTON    CLOUDY    36 -13  12 S18       29.72F VSB 3/4 WCI  25
FAIRMONT       CLOUDY    36  34  93 S16       29.76F WCI  26
$$

...SOUTHWEST WISCONSIN...


CITY           SKY/WX    TMP DP  RH WIND       PRES   REMARKS
LA CROSSE      CLOUDY    38  34  85 S12       29.93F FOG     WCI  30
PRAIRIE DU CHI CLOUDY    38  33  81 SE8G17    29.97F WCI  33
BOSCOBEL       CLOUDY    39  34  82 VRB5      30.00F HAZE
LONE ROCK      CLOUDY    41  32  70 S8        30.02F
PLATTEVILLE    CLOUDY    36  34  90 S16G22    30.01F WCI  27
FORT MC COY    CLOUDY    36  34  93 S10       29.96F FOG     WCI  28
CAMP DOUGLAS   CLOUDY    34  34 100 SE8       29.97F FOG     WCI  27
VIROQUA        CLOUDY    34  34 100 S12G17    29.94F WCI  26
WIS DELLS      CLOUDY    35  32  90 S12G20    30.00F FOG     WCI  26
$$

...ELSEWHERE IN WISCONSIN...


CITY           SKY/WX    TMP DP  RH WIND       PRES   REMARKS
MILWAUKEE      CLOUDY    36  29  75 S8        30.11F WCI  30
MADISON        CLOUDY    35  31  85 S15       30.04F FOG     WCI  25
GREEN BAY      CLOUDY    34  31  88 S10       30.07F FOG     WCI  26
EAU CLAIRE     LGT SNOW  33  31  92 SE12      29.89F FOG     WCI  24
BLACK RVR FLS  CLOUDY    35  35 100 SE6       29.94F FOG     WCI  30
MEDFORD        FOG       30  30  99 SE13G18   29.93F VSB 1/4 WCI  20
WAUSAU         CLOUDY    31  30  96 S8        29.96F FOG     WCI  23
WIS RAPIDS     CLOUDY    34  31  88 S9        29.99F FOG     WCI  27
MARSHFIELD     SNOW      33  31  92 S12       29.95F VSB 1/4 WCI  24
RICE LAKE      LGT SNOW  32  32  99 SE9       29.89F VSB 3/4 WCI  24
$$

...NORTHEAST IOWA...


CITY           SKY/WX    TMP DP  RH WIND       PRES   REMARKS
DECORAH        CLOUDY    37  36  93 S13G20    29.91F FOG     WCI  29
MASON CITY     CLOUDY    36  35  96 S18G25    29.85F FOG     WCI  26
CHARLES CITY   CLOUDY    37  37 100 S23G30    29.88F FOG     WCI  26
OELWEIN        CLOUDY    37  36  93 S20G26    29.93F FOG     WCI  27
$$

...ELSEWHERE IN IOWA...


CITY           SKY/WX    TMP DP  RH WIND       PRES   REMARKS
DES MOINES     CLOUDY    42  35  76 S16G25    29.91F
IOWA CITY      CLOUDY    39  35  86 S13       30.02F WCI  31
FORT DODGE     CLOUDY    37  34  87 S18G25    29.82F WCI  27
$$

...NORTHERN ILLINOIS...


CITY           SKY/WX    TMP DP  RH WIND       PRES   REMARKS
CHICAGO-OHARE  CLOUDY    35  28  75 S13       30.14F WCI  26
CHICAGO-MIDWAY CLOUDY    36  28  73 S10       30.16F WCI  28
MOLINE         CLOUDY    39  34  82 SE12      30.04F WCI  32
ROCKFORD       CLOUDY    36  31  82 S15       30.11F HAZE    WCI  27
PEORIA         CLOUDY    39  31  72 S17G25    30.11F WCI  30
$$

NOTE: "FAIR" INDICATES FEW OR NO CLOUDS BELOW 12,000 FEET WITH NO
SIGNIFICANT WEATHER AND/OR OBSTRUCTIONS TO VISIBILITY. WIND
SPEEDS ARE IN MILES-PER-HOUR.



USA.gov is the U.S. government's official web portal to all federal, state and local government web resources and services.